Weather History for Newark, NJ

Change the Weather History Date:

Wednesday, February 6, 2013

  Actual Average Record
Temperature  
Mean Temperature 36 °F 33 °F  
Max Temperature 42 °F 40 °F 69 °F (2008)
Min Temperature 29 °F 26 °F 5 °F (1995)
Degree Days  
Heating Degree Days 29 32  
Month to date heating degree days 215 194  
Since 1 July heating degree days 2736 2978  
Cooling Degree Days 0 0  
Month to date cooling degree days 0 0  
Year to date cooling degree days 0 0  
Moisture  
Dew Point 21 °F    
Average Humidity 62    
Maximum Humidity 92    
Minimum Humidity 31    
Precipitation  
Precipitation T in 0.10 in 1.58 in (2004)
Month to date precipitation 0.05 0.61  
Year to date precipitation 2.54 4.15  
Snow  
Snow 0.00 in 0.40 in 17.90 in (1978)
Month to date snowfall 0.8 2.1  
Since 1 July snowfall 10.7 15.8  
Snow Depth 0.00 in    
Sea Level Pressure  
Sea Level Pressure 30.10 in    
Wind  
Wind Speed 11 mph (WNW)    
Max Wind Speed 24 mph    
Max Gust Speed 30 mph    
Visibility 7 miles    
Events Snow    
T = Trace of Precipitation, MM = Missing Value Source: NWS Daily Summary

Daily Weather History Graph

Daily Weather History Graph

Search for Another Location

Airport:

Trip Planner

Search our weather history database for the weather conditions in past years. The results will help you decide how hot, cold, wet, or windy it might be!

Date:

Astronomy

Feb. 06, 2013 Rise Set
Actual Time 7:01 AM EST 5:20 PM EST
Civil Twilight 6:32 AM EST 5:49 PM EST
Nautical Twilight 6:00 AM EST 6:21 PM EST
Astronomical Twilight 5:28 AM EST 6:53 PM EST
Moon 3:42 AM EST (2/6) 1:35 PM EST (2/6)
Length of Visible Light 11h 16m
Length of Day
10h 19m
Waning Crescent, 17% of the Moon is Illuminated
Feb 6
Waning Crescent
Feb 10
New
Feb 17
First Quarter
Feb 25
Full
Mar 4
Last Quarter

Hourly Weather History & Observations

Time (EST) Temp. Windchill Dew Point Humidity Pressure Visibility Wind Dir Wind Speed Gust Speed Precip Events Conditions
12:51 AM 32.0 °F 27.5 °F 30.0 °F 92% 29.93 in 3.0 mi NNW 4.6 mph - 0.00 in Snow Light Snow
12:58 AM 32.0 °F 27.5 °F 30.2 °F 93% 29.93 in 2.5 mi NNW 4.6 mph - N/A Snow Light Snow
1:51 AM 32.0 °F - 30.9 °F 96% 29.93 in 2.0 mi Calm Calm - 0.00 in   Overcast
2:08 AM 32.0 °F - 30.2 °F 93% 29.94 in 2.0 mi Calm Calm - 0.00 in   Light Freezing Drizzle
2:51 AM 30.9 °F - 30.0 °F 96% 29.93 in 3.0 mi Calm Calm - 0.00 in   Light Freezing Drizzle
2:58 AM 30.2 °F - 30.2 °F 100% 29.93 in 3.0 mi Calm Calm - 0.00 in   Light Freezing Drizzle
3:29 AM 30.2 °F 26.7 °F 28.4 °F 93% 29.94 in 3.0 mi SW 3.5 mph - 0.00 in   Overcast
3:51 AM 30.0 °F 25.2 °F 28.0 °F 92% 29.94 in 3.0 mi West 4.6 mph - 0.00 in   Overcast
4:51 AM 30.0 °F 23.2 °F 28.0 °F 92% 29.96 in 3.0 mi West 6.9 mph - N/A   Overcast
5:27 AM 30.2 °F 23.4 °F 26.6 °F 86% 29.98 in 5.0 mi West 6.9 mph - N/A   Mostly Cloudy
5:51 AM 28.9 °F 21.9 °F 26.1 °F 89% 29.99 in 5.0 mi West 6.9 mph - N/A   Scattered Clouds
6:51 AM 30.9 °F 25.2 °F 27.0 °F 85% 30.02 in 5.0 mi West 5.8 mph - N/A   Overcast
7:51 AM 30.9 °F 24.3 °F 27.0 °F 85% 30.06 in 4.0 mi West 6.9 mph - N/A   Scattered Clouds
8:51 AM 33.1 °F 24.9 °F 26.1 °F 75% 30.08 in 6.0 mi West 10.4 mph - N/A   Haze
9:51 AM 35.1 °F 25.2 °F 25.0 °F 67% 30.10 in 9.0 mi WNW 16.1 mph - N/A   Scattered Clouds
10:51 AM 37.9 °F 29.6 °F 25.0 °F 60% 30.11 in 10.0 mi West 13.8 mph 19.6 mph N/A   Mostly Cloudy
11:51 AM 39.0 °F 31.0 °F 21.9 °F 50% 30.11 in 10.0 mi WNW 13.8 mph 21.9 mph N/A   Mostly Cloudy
12:51 PM 39.0 °F 29.9 °F 19.9 °F 46% 30.11 in 10.0 mi West 17.3 mph 21.9 mph N/A   Mostly Cloudy
1:51 PM 39.0 °F 32.8 °F 21.0 °F 49% 30.12 in 10.0 mi WNW 9.2 mph - N/A   Mostly Cloudy
2:51 PM 41.0 °F 32.8 °F 18.0 °F 40% 30.13 in 10.0 mi WNW 16.1 mph 21.9 mph N/A   Mostly Cloudy
3:51 PM 39.0 °F 30.3 °F 17.1 °F 41% 30.15 in 10.0 mi WNW 16.1 mph 24.2 mph N/A   Scattered Clouds
4:51 PM 37.9 °F 29.2 °F 15.1 °F 39% 30.18 in 10.0 mi NW 15.0 mph 25.3 mph N/A   Scattered Clouds
5:51 PM 37.0 °F 29.8 °F 14.0 °F 39% 30.22 in 10.0 mi NW 10.4 mph 18.4 mph N/A   Scattered Clouds
6:51 PM 36.0 °F 28.0 °F 12.9 °F 39% 30.26 in 10.0 mi NW 11.5 mph - N/A   Clear
7:51 PM 35.1 °F 25.5 °F 12.9 °F 40% 30.29 in 10.0 mi NW 15.0 mph - N/A   Clear
8:51 PM 33.1 °F 22.2 °F 10.9 °F 40% 30.31 in 10.0 mi NNW 17.3 mph 21.9 mph N/A   Clear
9:51 PM 32.0 °F 22.1 °F 7.0 °F 35% 30.33 in 10.0 mi North 13.8 mph - N/A   Clear
10:51 PM 30.9 °F 20.7 °F 3.9 °F 32% 30.35 in 10.0 mi NNW 13.8 mph - N/A   Clear
11:51 PM 28.9 °F 18.2 °F 3.0 °F 33% 30.36 in 10.0 mi North 13.8 mph - N/A   Clear